Location: Santa Cristina
(46.5667°N, 11.7167°E)
Time: 06:24:29
(UTC+00:00)

Cosmos 1833 Rocket - Pass Details

Date: 21 April 2021
Orbit: 831 x 841 km, 71.0° (Epoch: 15 May)

Event Time Altitude Azimuth Distance (km) Brightness Sun altitude
Rises 01:04:00 0° 330° (NNW) 3,405 6.2 -26.4°
Reaches altitude 10° 01:06:29 10° 326° (NNW) 2,467 5.4 -26.2°
Enters shadow 01:11:25 55° 276° (W) 1,010 2.9 -25.7°
